Terminal Aerodrome Forecast
Issued by NWS Pittsburgh, PA

Current Version | Previous Version | Graphics & Text | Print | Product List | Glossary On
Versions: 1 2 3 4 5 6 7 8 9 10 11 12 13 14 15 16 17 18 19 20 21 22 23 24 25 26 27 28 29
000
FTUS41 KPBZ 192000 AAA
TAFPIT
TAF AMD
KPIT 192053Z 1921/2024 18012G22KT P6SM BKN050 OVC080
     FM192300 18010KT 6SM -SN OVC035
     FM200400 23008KT P6SM BKN025
     FM201400 25013G21KT P6SM BKN030=

USA.gov is the U.S. government's official web portal to all federal, state and local government web resources and services.